Location: Days
(41.3591°N, 106.7339°W)
Time: 06:32:37
(UTC+00:00)

AIST 2D - Pass Details

Date: 09 July 2022
Orbit: 433 x 443 km, 97.0° (Epoch: 14 August)

Event Time Altitude Azimuth Distance (km) Brightness Sun altitude
Rises 04:42:36 0° 11° (N) 2,430 ? -17.5°
Reaches altitude 10° 04:44:38 10° 11° (N) 1,558 ? -17.7°
Maximum altitude 04:47:58 86° 284° (WNW) 447 ? -18.1°
Enters shadow 04:48:56 44° 196° (SSW) 620 ? -18.2°
